Regional Weather Roundup
Issued by NWS Northern Indiana

Home | Current Version | Previous Version | Graphics & Text | Print | Product List | Glossary On
Versions: 1 2 3 4 5 6 7 8 9 10 11 12 13 14 15 16 17 18 19 20 21 22 23 24 25 26 27 28 29 30 31 32 33 34 35 36 37 38 39 40 41 42 43 44 45 46 47 48 49 50
636
ASUS43 KIWX 181000
RWRIWX

KIWX WEATHER ROUNDUP
NATIONAL WEATHER SERVICE NORTHERN INDIANA
600 AM EDT WED OCT 18 2017

NOTE: "FAIR" INDICATES FEW OR NO CLOUDS BELOW 12,000 FEET WITH NO
SIGNIFICANT WEATHER AND/OR OBSTRUCTIONS TO VISIBILITY.

* THESE STATIONS ARE NOT UNDER NWS QUALITY CONTROL. THEY ALSO MAY NOT
  REPORT WEATHER SUCH AS PRECIPITATION OR FOG.

INZ001>027-181100-
NORTHERN INDIANA

CITY           SKY/WX    TMP DP  RH WIND       PRES   REMARKS
GARY*          CLEAR     54  39  58 S5        30.19R
MICHIGAN CITY* CLEAR     48  39  71 S7        30.21R
SOUTH BEND     CLEAR     46  40  79 S7        30.22R
GOSHEN         CLEAR     46  38  73 S8        30.23R
FORT WAYNE     CLEAR     43  37  79 S5        30.26R
PERU/GRISSOM   CLEAR     44  39  82 S6        30.24R

$$
INZ028>050-181100-
CENTRAL INDIANA

CITY           SKY/WX    TMP DP  RH WIND       PRES   REMARKS
LAFAYETTE      CLEAR     41  39  93 E3        30.24R
KOKOMO*        CLEAR     42  39  89 S7        30.26R
MUNCIE*        CLEAR     40  37  89 CALM      30.27R
INDIANAPOLIS   CLEAR     46  41  82 E5        30.26R

$$
MIZ043>046-050>051-056>058-064>065-071>073-077>080-181100-
SOUTHWEST LOWER MICHIGAN

CITY           SKY/WX    TMP DP  RH WIND       PRES   REMARKS
BATTLE CREEK   CLEAR     47  41  80 SW7       30.21R
BENTON HARBOR  CLEAR     51  39  63 S7        30.19R
COLDWATER*     CLEAR     47  38  70 S3        30.22S
HILLSDALE*     CLEAR     46  37  71 SW5       30.23R
HOLLAND        CLEAR     48  41  76 S6        30.17S
GRAND RAPIDS   CLEAR     50  42  74 S10       30.17S
KALAMAZOO      CLEAR     46  40  79 S5        30.21R
STURGIS*       CLEAR     44  39  83 S5        30.21S
THREE RIVERS*  FAIR      45  41  84 CALM      30.22S

$$
OHZ001>008-015>018-024>025-181100-
NORTHWEST OHIO

CITY           SKY/WX    TMP DP  RH WIND       PRES   REMARKS
DEFIANCE       CLEAR     45  38  76 S5        30.26R
FINDLAY        CLEAR     45  38  76 S10       30.26R
TOLEDO EXPRESS CLEAR     42  41  96 CALM      30.25R
TOLEDO METCALF CLEAR     43  38  82 S6        30.26R
LIMA           CLEAR     44  40  85 S9        30.27S

$$
AND FOR LAKE MICHIGAN COASTAL AND OPEN LAKE BUOY OBSERVATIONS

STATION/POSITION TEMP    WIND        PRES    VSBY  WAVE
                 AIR SEA DIR/SP/G                  HT/PER
                 (F)     (DEG/KT/KT) (MB)    (MI)  (FT/S)
CALUMET HARBOR    50     170/  6/  8 1021.0R
MICHIGAN CITY     52     160/ 11/ 15   N/A
BURNS HARBOR      53     190/ 14/ 19 1022.4S
SAINT JOSEPH      51     170/  4/ 11 1022.0
SOUTH LAKE BUOY   60 61  240/ 19/ 23 1020.2          3/ 5
4 MI NW BRIDGMAN  54 58  200/ 14/ 17 1022.7R         3/ 4
MICHIGAN CITY     53 58  190/ 10/ 14   N/A           1/ 3

$$
&&




USA.gov is the U.S. government's official web portal to all federal, state and local government web resources and services.